Flag for Portugal Weather past 2 weeks in Coimbra, Portugal

Now
55 °F

Passing clouds.


Feels Like: 53 °F
Forecast: N/A
Wind: 10 mph from North

Location: Porto / Pedras Rubras

Current Time: Mar 27, 2015 at 7:52:09 PM

Latest Report: Mar 27, 2015 at 7:00 PM


Visibility: N/A

Pressure: 30.45 "Hg

Humidity: 88%

Dew point: 52 °F

Location of CoimbraLocation

Historic Weather in Coimbra — Graph

°F

Coimbra temperature yesterday

Maximum temperature yesterday: 55 °F (at 12:30 PM)
Minimum temperature yesterday: 43 °F (at 1:00 AM)
Average temperature yesterday: 51 °F

Past Weeks' High & Low Weather Summary

 TemperatureHumidityPressure
High70 °F (Mar 20, 1:30 PM)100% (Mar 12, 10:00 PM)30.45 "Hg (Mar 12, 10:00 PM)
Low37 °F (Mar 15, 3:00 AM)32% (Mar 24, 4:00 PM)29.71 "Hg (Mar 20, 4:00 PM)
Average53 °F69%30.01 "Hg
* Reported Mar 12 6:00 PM — Mar 27 6:30 PM, Coimbra, Weather by CustomWeather, © 2015

Note: Actual official high and low records may vary slightly from our data, if they occured in-between our weather recording intervals... More about our weather records

Advertising

Coimbra weather history for previous 24 hours

 ConditionsComfort  
Time TempWeatherWind HumidityBarometerVisibility
6:30 PM
Fri, Mar 27
57 °FPartly sunny.8 mph88%30.45 "HgN/A
6:00 PM57 °FPartly sunny.9 mph88%30.45 "HgN/A
5:30 PM57 °FPartly sunny.10 mph88%30.45 "HgN/A
5:00 PM57 °FPartly sunny.12 mph82%30.45 "HgN/A
4:30 PM59 °FPartly sunny.10 mph77%30.45 "HgN/A
4:00 PM59 °FPartly sunny.13 mph77%30.45 "HgN/A
3:30 PM59 °FPartly sunny.12 mph77%30.45 "HgN/A
3:00 PM59 °FPartly sunny.12 mph77%30.45 "HgN/A
2:30 PM59 °FPartly sunny.10 mph77%30.45 "HgN/A
2:00 PM59 °FPartly sunny.12 mph77%30.45 "HgN/A
1:30 PM59 °FBroken clouds.12 mph82%30.45 "HgN/A
1:00 PM59 °FPartly sunny.9 mph82%30.45 "HgN/A
12:30 PM59 °FBroken clouds.9 mph82%30.45 "HgN/A
12:00 PM59 °FBroken clouds.8 mph82%30.45 "HgN/A
11:30 AM59 °FBroken clouds.7 mph82%30.45 "HgN/A
11:00 AM59 °FBroken clouds.7 mph82%30.45 "HgN/A
10:30 AM59 °FBroken clouds.9 mph82%30.45 "HgN/A
10:00 AM57 °FBroken clouds.9 mph88%30.45 "HgN/A
9:30 AM57 °FPartly sunny.8 mph88%30.45 "HgN/A
9:00 AM57 °FPartly sunny.9 mph94%30.45 "HgN/A
8:30 AM55 °FPartly sunny.9 mph100%30.45 "HgN/A
8:00 AM55 °FPartly sunny.8 mph94%30.42 "HgN/A
7:30 AM54 °FPartly sunny.6 mph100%30.42 "HgN/A
7:00 AM52 °FPartly sunny.3 mph100%30.42 "Hg6 mi
6:30 AM52 °FBroken clouds.6 mph100%30.42 "Hg6 mi
6:00 AM54 °FPassing clouds.7 mph100%30.42 "HgN/A
5:30 AM54 °FMostly cloudy.5 mph100%30.42 "Hg6 mi
5:00 AM54 °FLow clouds.6 mph100%30.42 "Hg4 mi
4:30 AM54 °FLow clouds.7 mph100%30.39 "Hg6 mi
4:00 AM54 °FMostly cloudy.7 mph100%30.39 "Hg4 mi
3:00 AM54 °FLow clouds.6 mph100%30.39 "Hg5 mi
2:30 AM54 °FLow clouds.7 mph100%30.39 "Hg5 mi
2:00 AM54 °FLow clouds.7 mph100%30.39 "Hg4 mi
1:30 AM54 °FFog.7 mph100%30.39 "Hg3 mi
1:00 AM54 °FLow clouds.7 mph100%30.39 "Hg4 mi
12:30 AM54 °FDrizzle. Fog.7 mph100%30.39 "Hg2 mi
12:00 AM54 °FDrizzle. Fog.7 mph100%30.39 "Hg3 mi
11:30 PM
Thu, Mar 26
54 °FDrizzle. Fog.9 mph100%30.39 "Hg2 mi
11:00 PM54 °FDrizzle. Fog.7 mph100%30.36 "Hg2 mi
10:30 PM54 °FDrizzle. Fog.7 mph100%30.36 "Hg3 mi
10:00 PM54 °FDrizzle. Fog.8 mph100%30.36 "Hg3 mi
9:00 PM54 °FDrizzle. Fog.7 mph100%30.33 "Hg2 mi
8:30 PM54 °FDrizzle. Fog.7 mph100%30.33 "Hg2 mi
8:00 PM54 °FDrizzle. Fog.9 mph100%30.30 "Hg2 mi
7:30 PM54 °FDrizzle. Fog.9 mph100%30.30 "Hg2 mi
7:00 PM54 °FFog.9 mph100%30.30 "Hg1 mi
Weather by CustomWeather, © 2015

See weather overviewHow to use our weather pages